Location: Newark
(54.2500°N, 9.1833°E)
Time: 05:40:51
(UTC+00:00)

Transit 2A - Visible Passes

Search period start: 16 December 2019 00:00
Search period end: 26 December 2019 00:00
Orbit: 602 x 957 km, 66.7° (Epoch: 14 December)

Date Brightness Start Highest point End Pass type
(mag) Time Alt. Az. Time Alt. Az. Time Alt. Az.
16 Dec 6.6 05:10:59 10° SSW 05:15:25 46° ESE 05:19:39 10° NE visible
17 Dec 7.2 04:37:14 10° S 04:41:24 33° ESE 04:45:22 10° NE visible
17 Dec 5.8 06:20:00 10° WSW 06:24:25 49° NW 06:28:40 10° NE visible
18 Dec 7.7 04:04:14 12° SSE 04:07:24 24° ESE 04:10:59 10° ENE visible
18 Dec 5.5 05:45:41 10° SW 05:50:13 65° NW 05:54:35 10° NE visible
19 Dec 8.1 03:32:42 17° SE 03:33:28 17° ESE 03:36:24 10° ENE visible
19 Dec 5.4 05:13:16 23° SW 05:16:04 87° NW 05:20:27 10° NE visible
19 Dec 6.7 06:56:03 10° W 06:59:46 25° NNW 07:03:25 10° NNE visible
20 Dec 8.7 03:00:35 11° E 03:00:35 11° E 03:01:22 10° E visible
20 Dec 5.7 04:41:08 55° S 04:41:57 69° SE 04:46:19 10° NE visible
20 Dec 6.4 06:21:41 11° W 06:25:26 30° NNW 06:29:18 10° NNE visible
21 Dec 6.6 04:08:40 44° E 04:08:40 44° E 04:12:07 10° NE visible
21 Dec 6.1 05:49:12 25° W 05:51:08 36° NW 05:55:13 10° NNE visible
22 Dec 7.8 03:36:01 22° ENE 03:36:01 22° ENE 03:37:52 10° NE visible
22 Dec 5.8 05:16:32 45° NW 05:16:54 46° NW 05:21:07 10° NE visible
23 Dec 8.7 03:03:12 11° ENE 03:03:12 11° ENE 03:03:29 10° ENE visible
23 Dec 6.1 04:43:43 46° N 04:43:43 46° N 04:47:02 10° NE visible
23 Dec 6.9 06:24:14 14° WNW 06:26:38 21° NNW 06:30:01 10° NNE visible
24 Dec 7.2 04:10:48 28° NE 04:10:48 28° NE 04:12:55 10° NE visible
24 Dec 6.7 05:51:19 22° NW 05:52:16 24° NNW 05:55:52 10° NNE visible
25 Dec 8.1 03:37:48 16° NE 03:37:48 16° NE 03:38:46 10° NE visible
25 Dec 6.6 05:18:18 28° NNW 05:18:18 28° NNW 05:21:45 10° NNE visible
